www.pogodaiklimat.ru

Погода и климат >> Архив погоды >> Таиланд >> Satun


ПОГОДА в Satun

  • Прогноз погоды в Satun
  • Монитор погоды в Satun
  • Климат города

АРХИВ ПОГОДЫ в Satun

Время (UTC), дата Ветер
(напр.,м/с)
 
Видим.   Явления Облачность Т
(С)
Тd
(С)
f
(%)
Тe
(С)
Тes
(С)
Комфортность P
(гПа)
Po
(гПа)
Тmin
(С)
Tmax
(С)
R
(мм)
R24
(мм)
S
(см)
15 19.06 штиль 0 10 км 8/3 600 м
[Cu med, cong Ac lent Cs]
+27.5 +24.8 85 +39 +39 очень
душно
1010.5 1009.8
18 19.06 штиль 0 10 км 8/3 600 м
[Cu med, cong Ac lent Cs]
+26.2 +24.6 91 +37 +37 очень
душно
1009.9 1009.2
21 19.06 штиль 0 10 км 6/1 600 м
[Cu med, cong Cs]
+25.5 +24.0 91 +35 +35 очень
душно
1008.5 1007.8
00 20.06 штиль 0 10 км 9/3 600 м
[Cu med, cong Ac lent Cs]
+25.6 +24.3 93 +36 +36 очень
душно
1009.9 1009.2 +25.0 0.7
03 20.06 штиль 0 10 км 8/3 600 м
[Cu med, cong Ac lent Cs]
+30.2 +24.3 71 +42 +51 опасность
перегрева
1011.2 1010.5
06 20.06 З 4 10 км {дождь} 8/3 600 м
[Cu med, cong Ac lent Cs]
+30.6 +25.5 74 +45 +51 опасность
перегрева
1009.4 1008.8 0.9
09 20.06 штиль 0 10 км 9/4 600 м
[Cu med, cong Ac lent Cs]
+29.8 +24.4 73 +42 +45 опасность
перегрева
1007.5 1006.8
12 20.06 штиль 0 10 км 9/4 600 м
[Cu med, cong Ac lent Cs]
+28.9 +25.6 82 +43 +43 опасность
перегрева
1007.6 1006.9 +31.5
15 20.06 штиль 0 10 км 9/4 600 м
[Cu med, cong Ac lent Cs]
+27.2 +24.9 87 +39 +39 очень
душно
1009.8 1009.2
18 20.06 штиль 0 10 км 9/4 600 м
[Cu med, cong Ac lent Cs]
+26.6 +25.2 92 +38 +38 очень
душно
1009.7 1009.0
21 20.06 штиль 0 10 км 9/4 600 м
[Cu med, cong Ac lent Cs]
+26.2 +25.0 93 +37 +37 очень
душно
1008.9 1008.2
00 21.06 штиль 0 10 км 8/3 600 м
[Cu med, cong Ac lent Cs]
+25.7 +24.7 94 +36 +37 очень
душно
1010.2 1009.5 +25.4
03 21.06 штиль 0 10 км 8/3 600 м
[Cu med, cong Ac lent Cs]
+31.6 +25.1 69 +46 +54 опасность
перегрева
1010.8 1010.1
06 21.06 штиль 0 10 км гроза без осадков 9/4 600 м
[Cb cap Ac lent Cs]
+29.5 +24.9 76 +42 +51 опасность
перегрева
1009.5 1008.9
09 21.06 штиль 0 10 км {гроза} 9/3 600 м
[Cu med, cong Ac lent Cs]
+29.0 +25.9 83 +43 +47 опасность
перегрева
1007.4 1006.7
12 21.06 штиль 0 10 км {гроза} 8/3 600 м
[Cu med, cong Ac lent Cs]
+28.5 +26.1 87 +43 +43 опасность
перегрева
1007.8 1007.2 +32.0
15 21.06 штиль 0 10 км в посл. час дождь {гроза} 8/3 600 м
[Cu med, cong Ac lent Cs]
+26.5 +25.1 92 +38 +38 очень
душно
1009.6 1008.9 0.9
18 21.06 штиль 0 10 км {гроза} 8/3 600 м
[Cu med, cong Cs]
+26.1 +25.1 94 +37 +37 очень
душно
1008.8 1008.1
21 21.06 штиль 0 10 км 8/3 600 м
[Cu med, cong Cs]
+25.5 +24.8 96 +36 +36 очень
душно
1007.5 1006.8
00 22.06 штиль 0 10 км 8/3 600 м
[Cu med, cong Ac lent Cs]
+26.0 +25.1 95 +37 +38 очень
душно
1009.5 1008.8 +25.0
03 22.06 штиль 0 10 км 9/4 600 м
[Cu Sc Ac lent Cs]
+28.0 +24.8 83 +40 +47 очень
душно
1011.4 1010.7
06 22.06 штиль 0 10 км 9/4 600 м
[Cu med, cong Ac lent Cs]
+30.2 +24.3 71 +42 +52 опасность
перегрева
1009.8 1009.1
09 22.06 З 2 10 км 9/4 600 м
[Cu med, cong Ac lent Cs]
+31.1 +24.4 68 +44 +46 опасность
перегрева
1008.0 1007.3
12 22.06 штиль 0 10 км {дождь} 10/5 600 м
[Cu Sc Ac As Cs]
+26.0 +23.8 88 +36 +36 очень
душно
1009.4 1008.7 +32.0 4
15 22.06 штиль 0 10 км {дождь} 10/4 600 м
[Cu Sc Ac lent Cs]
+25.6 +24.3 93 +36 +36 очень
душно
1010.9 1010.2 1
18 22.06 штиль 0 10 км в посл. час дождь 10/5 600 м
[Cu Sc Ac As Cs]
+24.5 +23.3 93 +33 +33 очень
душно
1010.9 1010.2 7
21 22.06 штиль 0 10 км в посл. час дождь 10/4 600 м
[Cu Sc Ac As Cs]
+24.0 +22.8 93 +32 +32 очень
душно
1009.1 1008.4 2
00 23.06 штиль 0 10 км {дождь} 10/4 600 м
[Cu Sc Ac lent Cs]
+23.9 +22.9 94 +32 +32 очень
душно
1009.5 1008.8 +23.4 0.6
03 23.06 штиль 0 10 км 10/3 600 м
[Cu Sc Ac lent Cs]
+28.3 +24.6 80 +40 +47 очень
душно
1011.0 1010.3
06 23.06 штиль 0 6000 м слабый дождь 10/5 600 м
[Cu Sc Ac As Cs]
+25.1 +23.6 91 +34 +41 очень
душно
1010.5 1009.8 8
09 23.06 штиль 0 10 км {дождь} 9/3 600 м
[Cu med, cong Ac lent Cs]
+27.5 +24.6 84 +39 +43 очень
душно
1007.2 1006.5 0.6
12 23.06 штиль 0 10 км {дождь} 8/3 600 м
[Cu med, cong Ac lent Cs]
+27.3 +25.0 87 +39 +39 очень
душно
1008.3 1007.6 +28.7 9
15 23.06 штиль 0 10 км 8/3 600 м
[Cu med, cong Cs]
+26.5 +24.6 89 +37 +37 очень
душно
1010.4 1009.7
18 23.06 штиль 0 10 км 8/3 600 м
[Cu med, cong Cs]
+25.0 +23.7 93 +34 +34 очень
душно
1008.1 1007.4
21 23.06 штиль 0 10 км 8/3 600 м
[Cu med, cong Cs]
+25.0 +24.3 96 +35 +35 очень
душно
1007.5 1006.8
00 24.06 штиль 0 10 км 8/3 600 м
[Cu med, cong Ac lent Cs]
+24.8 +24.4 98 +35 +35 очень
душно
1008.8 1008.1 +24.5 9
03 24.06 штиль 0 10 км 8/3 600 м
[Cu med, cong Ac lent Cs]
+29.4 +24.2 74 +41 +50 опасность
перегрева
1009.2 1008.5
06 24.06 штиль 0 10 км {дождь} 8/5 600 м
[Sc Ac lent Cs]
+26.4 +23.9 86 +36 +46 очень
душно
1008.8 1008.1 6
09 24.06 СЗ 2 7000 м слабый дождь 10/5 600 м
[Sc Ac As Cs]
+27.0 +24.8 88 +39 +40 очень
душно
1006.8 1006.1 0.2
12 24.06 штиль 0 6000 м слабый дождь 10/5 600 м
[Sc Ac As Cs]
+24.7 +23.2 91 +33 +33 очень
душно
1007.4 1006.7 +30.0 1
15 24.06 штиль 0 10 км {дождь} 8/3 600 м
[Cu med, cong Ac lent Cs]
+24.5 +23.3 93 +33 +33 очень
душно
1009.6 1008.9 0.6
18 24.06 штиль 0 10 км в посл. час дождь 8/3 600 м
[Cu med, cong Cs]
+24.3 +23.4 95 +33 +33 очень
душно
1008.9 1008.3 0.8
21 24.06 штиль 0 10 км 6/3 600 м
[Cu med, cong Cs]
+24.0 +22.8 93 +32 +32 очень
душно
1008.7 1008.0
00 25.06 штиль 0 10 км 9/3 600 м
[Cu med, cong Ac lent Cs]
+24.2 +23.5 96 +33 +33 очень
душно
1008.5 1007.8 +23.6
03 25.06 штиль 0 10 км 9/3 600 м
[Cu med, cong Ac lent Cs]
+27.8 +24.8 84 +40 +47 очень
душно
1009.8 1009.1
06 25.06 З 5 10 км 9/3 600 м
[Cu med, cong Ac lent Cs]
+31.2 +24.0 66 +43 +47 опасность
перегрева
1008.1 1007.4
09 25.06 З 3 10 км 9/4 600 м
[Cu med, cong Ac lent Cs]
+29.0 +20.7 61 +36 +38 очень
душно
1007.6 1006.9
12 25.06 З 2 10 км {дождь} 9/4 600 м
[Cu med, cong Ac lent Cs]
+26.7 +21.1 71 +34 +34 очень
душно
1008.6 1008.0 +32.0 0.2
15 25.06 штиль 0 10 км 8/3 600 м
[Cu med, cong Cs]
+25.5 +24.0 91 +35 +35 очень
душно
1010.3 1009.6
18 25.06 штиль 0 10 км 8/3 600 м
[Cu med, cong Cs]
+25.0 +23.5 91 +34 +34 очень
душно
1009.4 1008.7
21 25.06 штиль 0 10 км 6/3 600 м
[Cu med, cong Cs]
+24.3 +22.8 91 +32 +32 очень
душно
1008.4 1007.7
00 26.06 штиль 0 10 км 8/1 600 м
[Cu med, cong Ac lent Cs]
+24.8 +23.6 93 +34 +34 очень
душно
1009.1 1008.4 +22.8 0.2
03 26.06 штиль 0 10 км 8/3 600 м
[Cu med, cong Ac lent Cs]
+31.0 +24.6 69 +44 +52 опасность
перегрева
1010.6 1009.9
06 26.06 штиль 0 10 км 8/3 600 м
[Cu med, cong Ac lent Cs]
+31.9 +23.4 61 +43 +55 опасность
перегрева
1009.6 1009.0
09 26.06 штиль 0 10 км 9/4 600 м
[Cu Sc Ac lent Cs]
+29.5 +26.0 81 +44 +48 опасность
перегрева
1008.1 1007.4

 

Местоположение метеостанции Satun (Таиланд): широта 6.65 долгота 100.08 высота над уровнем моря 6 м.

В архиве по умолчанию представлена погода в Satun за последнюю неделю. Архивные данные за месяц целиком и за предыдущие месяцы, начиная с января 2011 года, Вы можете получить, выбрав интересующий диапазон дат из раскрывающегося списка и нажав кнопку "Ввод!".

Внимание! Время в таблицах - всемирное. Для получения местного времени необходимо прибавить поправку, которая в Satun равна 7 ч.

Смотрите также архив погоды в соседних городах и на ближайших метеорологических станциях:

Погода в Sa-dao (Таиланд) (39 км)
Погода в Hat Yai (Таиланд) (49 км)
Погода в Langkawi (Малайзия) (53 км)
Погода в Alor Star (Малайзия) (61 км)
Погода в Songkhla (Таиланд) (85 км)
Погода в Phatthalung Agromet (Таиланд) (104 км)
Погода в Trang (Таиланд) (109 км)
Погода в Pattani (Таиланд) (119 км)
Погода в Yala Agromet (Таиланд) (133 км)
Погода в Butterworth Air Base (Малайзия) (135 км)

Пояснения к столбцам:

Ветер - указаны скорость ветра в м/с - средняя за 10 мин, порывы в срок и между сроками (в фигурных скобках) и направление, откуда дует ветер: С - северный, СВ - северо-восточный, В - восточный, ЮВ - юго-восточный, Ю - южный, ЮЗ - юго-западный, З - западный, СЗ - северо-западный.
Видимость - горизонтальная дальность видимости в метрах или километрах. При видимости от 1 до 10 км при отсутствии осадков обычно наблюдается дымка, при ухудшении видимости до 1 км и менее - туман. В сухую погоду видимость может ухудшаться дымом, пылью или мглою.
Явления - указаны атмосферные явления, наблюдавшиеся в срок или в последний час перед сроком; фигурными скобками обозначены явления, наблюдавшиеся между сроками (за 1-3 часа до срока); квадратными скобками обозначены град или гололедные отложения с указанием их диаметра в мм.
Облачность - указаны через наклонную черту общая и нижняя облачность в баллах и высота нижней границы облаков в метрах; квадратными скобками обозначены формы облаков: Ci - перистые, Cs - перисто-слоистые, Cc - перисто-кучевые, Ac - высококучевые, As - высокослоистые, Sc - слоисто-кучевые, Ns - слоисто-дождевые, Cu - кучевые, Cb - кучево-дождевые. Подробнее классификацию облаков см. в Атласе облаков (PDF).
T - Температура воздуха - температура, измеренная на высоте 2 м над землей.
Td - Температура точки росы - температура, при понижении до которой содержащийся в воздухе водяной пар достигнет насыщения.
f - Относительная влажность воздуха - влажноcть воздуха, измеренная на высоте 2 м над землей.
Te - Эффективная температура - температура, которую ощущает одетый по сезону человек в тени. Характеристика душности погоды. При расчете учитывается влияние влажности воздуха и скорости ветра на теплоощущения человека.
Tes - Эффективная температура на солнце - температура, которую ощущает человек, с поправкой на солнечный нагрев. Характеристика знойности погоды. Зависит от высоты солнца над горизонтом, облачности и скорости ветра. Ночью, в пасмурную погоду, а также при ветре 12 м/с и более поправка равна нулю.
P - Атмосферное давление - приведенное к уровню моря атмосферное давление.
Po - Атмосферное давление - измеренное на уровне метеостанции атмосферное давление.
Tmin - Минимальная температура - минимум температуры воздуха на высоте 2 м над землей.
Tmax - Максимальная температура - максимум температуры воздуха на высоте 2 м над землей.
R - Количество осадков - Количество выпавших осадков за период времени, мм. При наведении курсора мыши на число - период времени, за который выпало указанное количество осадков.
R24 - Количество осадков - Количество выпавших осадков за 24 часа, мм.
S - Снежный покров - Высота снежного покрова, см. При наведении курсора мыши на число - состояние снежного покрова и степень покрытия местности в баллах.